Theta_e
344 343 344 344 345 346 346 345 344 344 344 344 345 345 345 343 344 348 349 348 349 350 350 351 352 354 354 354 354 355 355 354 356 356 356 358 358 358 357 355 354 354
347 347 347 345 346 347 346 344 344 344 346 346 347 347 346 345 346 348 348 348 348 349 349 350 351 354 354 354 355 355 354 354 354 355 356 356 356 356 354 353 354 354
349 349 350 348 348 347 347 346 345 345 347 347 347 347 347 347 348 349 349 348 349 350 349 349 351 352 353 353 354 354 354 353 353 354 355 355 354 353 352 353 354 353
349 350 350 349 348 347 347 348 347 345 346 347 347 347 348 347 348 348 349 349 349 350 350 350 351 352 353 353 353 354 355 355 355 355 355 355 355 353 353 354 355 354
350 350 350 349 347 346 347 347 347 346 346 346 347 348 349 349 348 348 348 350 349 349 350 351 351 352 353 353 353 355 355 355 356 356 356 356 354 353 353 354 354 356
351 349 349 349 348 348 348 348 347 347 347 347 347 349 350 350 350 349 349 351 350 349 350 351 351 352 352 353 354 354 355 355 356 355 356 356 354 353 353 354 354 357
351 349 349 350 349 348 349 349 349 349 349 348 348 348 349 349 350 351 351 351 350 351 352 351 352 352 352 353 354 354 355 356 356 355 355 354 354 353 354 355 356 358
351 349 348 350 349 348 349 349 349 349 348 349 348 347 348 348 348 350 351 351 351 352 353 352 352 352 352 353 354 354 356 355 356 357 355 354 354 354 354 354 355 356
351 350 349 349 349 348 348 348 348 348 347 347 347 347 348 349 349 350 351 352 351 352 353 352 352 353 353 353 354 355 356 355 356 356 355 355 355 353 353 354 354 355
351 350 349 349 349 348 348 348 347 348 347 347 347 347 348 349 350 350 351 351 352 352 353 353 353 353 353 354 355 355 355 355 355 355 356 356 353 350 352 354 355 354
351 351 350 349 349 349 348 348 347 347 347 347 347 348 349 350 351 351 350 351 351 352 353 353 353 353 353 354 355 356 355 354 355 357 357 354 351 352 354 355 355 354
351 351 350 349 349 349 349 349 348 347 347 347 348 348 349 351 351 352 351 351 351 352 353 353 353 353 352 353 355 356 355 354 357 358 356 353 353 355 356 355 354 353
350 350 350 349 349 349 349 348 348 348 347 347 348 348 350 351 350 351 351 352 352 352 352 352 353 353 352 353 354 355 355 357 359 357 354 354 356 356 355 354 353 353
350 350 351 350 349 349 349 348 348 349 348 348 348 349 350 350 350 349 349 350 352 352 352 351 352 352 352 352 353 355 356 359 359 356 355 356 356 354 353 353 352 352
351 351 351 351 351 350 350 349 348 348 349 349 348 349 350 349 350 350 348 349 351 352 352 351 351 351 352 353 354 355 357 359 359 356 355 356 354 352 352 352 351 351
351 351 351 351 351 352 351 350 349 348 348 348 347 348 349 349 350 349 349 349 350 352 351 350 350 352 352 353 354 355 357 359 358 355 354 353 352 351 351 351 351 349
350 351 351 350 349 350 351 350 350 348 348 347 347 346 347 348 348 349 349 348 349 350 350 350 351 351 352 353 354 356 357 359 356 353 353 351 351 351 350 350 349 347
350 351 353 352 351 351 352 351 350 348 347 347 347 346 346 347 348 348 348 348 349 349 349 350 351 352 352 353 354 356 357 357 355 353 352 350 350 351 350 349 347 343
350 353 357 356 354 353 351 350 350 349 348 347 347 346 346 347 347 347 347 348 348 349 349 350 351 352 352 353 355 357 357 356 355 352 351 350 350 350 349 347 344 342
352 354 355 355 355 353 349 347 349 350 350 348 347 346 345 346 347 346 346 347 346 347 349 350 351 351 353 354 355 357 356 354 353 351 351 350 350 349 348 346 344 342
352 351 350 352 355 354 350 348 348 350 352 350 348 346 345 345 346 347 347 347 347 348 349 351 352 353 355 356 356 354 353 352 351 351 350 349 348 348 346 344 342 340
350 349 349 352 355 355 352 351 349 350 352 352 350 349 347 347 347 348 348 348 349 349 350 352 353 354 354 354 353 351 351 351 351 350 348 347 346 345 344 342 340 338
348 349 350 351 353 354 354 353 351 352 353 354 353 351 350 349 350 349 348 349 349 350 351 352 351 350 350 351 350 350 350 350 349 347 346 344 341 340 339 337 334 331
349 350 352 352 352 354 354 354 353 353 354 354 353 353 352 351 351 350 349 349 350 351 352 352 350 349 350 350 350 351 350 349 348 346 343 339 336 334 332 330 327 326
350 350 351 351 351 352 352 352 352 352 352 352 350 352 353 352 351 350 349 349 350 351 352 351 350 349 350 350 350 349 349 348 347 344 339 336 334 331 328 327 327 327
349 349 349 348 347 348 348 348 349 350 350 349 348 349 351 350 349 349 348 347 348 349 349 349 349 349 349 349 349 349 348 347 345 341 337 334 332 330 328 329 330 331
Wind_Speed
25 25 25 25 23 20 19 19 19 19 21 22 21 20 20 19 17 18 18 16 15 15 15 14 13 12 12 11 10 8 7 6 5 4 4 6 7 6 5 4 3 3
25 24 24 25 24 21 19 20 19 19 21 20 18 18 19 19 17 17 19 17 16 15 15 14 13 13 13 12 11 10 9 8 7 6 5 6 6 6 6 6 4 3
26 25 24 25 26 23 20 20 21 21 21 20 18 18 19 20 19 17 18 19 18 17 17 17 15 15 14 13 12 11 9 8 8 9 8 7 6 6 7 6 5 3
28 27 25 25 25 24 21 22 23 23 22 21 20 19 19 21 21 21 20 21 21 19 19 20 18 16 15 13 12 11 9 9 9 9 8 7 6 6 6 6 5 4
30 30 27 25 25 23 22 25 26 23 22 23 23 22 21 21 22 23 23 23 22 20 21 21 19 17 15 13 12 12 11 10 10 9 9 8 7 7 8 8 7 5
29 31 28 25 24 23 22 25 26 22 20 23 24 24 23 22 21 22 23 24 22 21 21 21 19 17 15 13 12 13 13 12 11 9 9 9 8 8 9 9 7 5
29 31 29 26 25 24 23 24 24 23 22 22 24 25 24 24 22 20 22 24 22 20 20 20 18 17 16 13 13 13 13 13 11 10 9 9 9 9 9 8 6 5
30 31 30 27 27 26 25 24 23 23 24 24 25 25 24 26 25 21 21 23 21 19 20 19 18 17 16 15 15 15 15 14 13 11 11 10 9 8 8 8 7 6
30 31 31 29 28 28 27 26 24 25 26 27 27 26 24 25 25 23 22 22 21 21 21 19 18 18 17 17 17 17 17 16 14 13 11 11 9 8 9 9 7 5
30 31 31 30 29 29 29 28 27 27 28 27 27 27 26 25 26 25 24 23 22 22 23 21 19 19 19 19 19 18 18 16 14 12 11 10 9 8 9 8 6 4
31 31 31 31 31 30 29 30 30 29 28 29 28 28 28 27 27 26 26 25 23 22 23 22 21 21 21 20 20 19 17 15 13 12 10 9 9 9 8 7 6 5
32 31 32 33 33 32 31 31 31 30 29 30 31 30 29 28 27 26 25 26 25 24 24 23 22 22 21 21 21 19 16 14 13 12 11 11 10 9 8 6 5 4
34 33 33 34 34 34 34 33 32 31 30 30 30 31 30 28 26 25 24 24 25 24 24 23 24 23 21 21 21 19 16 14 13 13 12 12 10 8 7 6 4 5
32 34 34 35 36 35 35 34 33 31 30 29 28 29 28 28 28 27 25 26 27 26 24 23 23 23 21 21 21 19 17 15 14 14 14 12 10 8 7 7 6 6
30 32 33 34 36 36 35 35 34 32 30 28 28 29 29 29 30 29 27 28 29 28 26 24 24 23 21 21 21 20 18 17 15 15 14 13 11 9 9 9 8 8
32 32 33 34 35 37 37 36 34 31 30 29 29 30 32 31 30 30 29 29 29 27 26 25 25 24 23 23 23 21 19 18 16 15 14 13 12 13 12 12 12 13
34 31 30 32 34 35 37 37 36 33 32 33 31 30 32 33 31 31 30 29 29 29 27 26 27 26 25 24 23 21 20 19 16 15 15 14 14 16 17 17 17 17
33 30 25 24 26 26 27 28 31 33 33 32 32 31 31 33 33 32 32 32 30 30 28 28 29 28 26 24 23 22 21 19 18 17 16 16 17 19 20 20 20 18
33 28 19 17 19 21 23 20 19 24 26 26 27 28 29 33 33 31 32 33 31 31 31 31 31 29 26 25 24 23 22 20 19 18 18 19 19 20 21 21 20 19
22 18 13 13 12 15 23 25 19 18 20 22 24 24 26 30 31 31 33 34 32 33 33 33 31 29 27 26 25 23 22 20 20 19 19 21 21 21 21 20 19 17
8 9 13 13 11 13 21 26 23 19 19 20 23 25 26 29 31 32 34 34 34 34 34 33 31 29 28 27 25 24 22 21 21 22 22 22 22 21 20 19 19 18
5 10 12 12 16 18 22 26 27 26 24 23 23 24 26 29 32 34 35 35 35 34 34 32 30 29 28 27 26 25 24 23 24 24 24 23 22 21 20 20 19 19
10 11 10 14 18 20 23 25 27 29 28 26 26 27 27 29 32 34 35 35 35 35 34 33 31 29 28 28 28 27 27 27 27 26 24 23 21 21 21 20 20 21
12 14 15 17 20 22 24 24 26 29 28 26 26 28 29 29 30 31 32 34 35 35 34 34 32 30 29 29 29 29 29 29 29 27 26 25 24 23 22 23 25 26
11 13 15 17 20 23 24 24 25 27 27 24 22 23 26 28 29 30 30 31 32 34 34 33 33 32 31 31 31 30 30 30 29 29 30 29 28 27 26 26 27 27
10 11 13 14 15 17 18 20 21 24 25 26 26 26 27 27 28 29 30 30 31 33 34 35 36 35 33 32 32 30 29 29 30 32 33 32 31 31 30 27 25 23
Wind_Direction
215 215 217 218 219 225 227 221 218 214 209 209 212 215 215 217 220 221 227 233 235 232 223 224 234 231 228 233 233 231 227 222 221 219 226 236 238 247 261 262 270 307
213 214 216 216 217 225 225 219 219 211 204 206 209 210 214 218 222 226 232 234 232 230 223 221 228 228 228 233 233 233 234 237 238 232 227 229 237 253 255 246 252 295
211 211 215 217 219 224 222 215 214 209 204 207 211 214 219 222 224 230 234 233 233 232 225 220 224 228 231 235 236 232 227 229 230 228 231 237 250 260 248 235 237 259
212 212 215 220 223 226 226 216 212 211 211 213 216 221 227 228 227 230 234 235 235 233 224 220 223 227 229 233 230 219 216 224 226 230 238 245 256 257 237 226 226 230
215 214 216 220 223 228 229 220 214 215 219 222 221 222 229 232 228 229 232 233 233 230 221 218 222 226 228 230 222 212 217 228 230 234 243 247 252 248 233 229 227 227
215 216 218 221 220 222 221 216 214 216 222 225 222 221 229 231 228 230 231 228 227 226 220 218 221 225 228 227 220 217 221 226 231 235 241 246 247 240 235 238 237 235
214 215 218 221 219 219 216 212 213 217 221 224 222 222 228 228 227 231 230 223 222 222 219 218 221 224 227 222 218 222 222 225 232 234 236 240 240 238 238 241 241 241
212 214 217 221 219 219 219 215 215 218 222 226 228 228 230 229 228 229 225 221 220 219 217 220 222 222 223 221 219 222 222 224 230 231 233 233 232 238 238 235 238 246
211 213 215 219 219 219 220 219 220 223 225 228 230 230 231 230 228 224 219 217 220 221 220 222 223 223 223 223 222 224 226 227 230 230 232 231 229 232 229 228 236 245
211 212 213 216 218 219 220 220 222 226 228 229 228 227 228 229 227 222 217 215 218 221 221 222 223 222 224 224 224 227 229 229 229 228 228 228 225 221 217 220 230 240
211 212 212 214 216 218 219 220 222 227 229 229 227 226 227 226 222 218 217 218 219 218 217 219 222 222 222 223 223 226 227 226 226 225 225 225 220 215 213 221 237 242
210 212 213 213 214 215 218 220 223 226 228 228 227 227 225 221 217 214 214 217 218 217 216 218 221 222 222 223 222 221 220 221 221 219 220 221 218 213 214 223 233 224
210 210 212 214 214 215 216 219 223 226 227 227 227 227 221 216 217 217 218 220 218 217 220 222 222 222 222 222 220 216 213 212 212 211 212 212 209 207 207 208 199 184
212 211 212 213 215 216 216 218 221 224 227 225 223 222 218 214 216 216 217 222 224 221 221 221 220 218 217 216 214 211 209 207 207 206 201 198 197 195 187 176 164 160
213 214 214 213 214 216 217 218 219 221 226 227 223 220 217 214 215 213 211 216 222 221 218 217 215 212 210 209 208 206 205 204 203 202 197 191 183 170 159 151 142 136
213 214 216 216 214 214 216 218 218 218 222 227 225 220 217 216 216 215 212 214 217 218 215 211 208 206 206 206 207 204 201 198 197 197 195 187 174 159 146 138 131 125
214 213 217 220 217 215 216 217 217 217 219 225 226 223 221 221 220 217 215 214 214 214 210 205 202 202 203 204 205 202 199 195 193 193 188 179 170 158 147 141 136 130
213 213 218 221 214 206 207 212 216 218 221 224 226 224 222 220 218 217 214 211 210 208 204 200 200 200 200 201 201 200 199 196 192 188 182 175 168 160 153 149 143 135
212 210 207 203 198 191 191 199 208 213 216 219 221 222 222 218 215 212 208 204 203 202 199 198 197 197 197 198 198 197 196 193 190 185 179 174 168 162 159 154 147 140
216 207 173 163 177 188 197 203 208 206 203 207 213 217 218 214 209 203 198 196 197 197 196 195 194 192 193 194 193 191 189 186 182 177 173 170 166 164 161 158 154 152
231 178 148 160 186 201 207 208 209 210 203 199 204 208 210 208 204 198 194 191 192 193 192 190 189 187 187 187 186 184 182 179 173 167 164 163 163 165 165 163 162 156
201 151 152 191 207 209 212 208 206 211 209 199 196 197 196 196 195 193 191 187 187 188 187 184 182 182 182 182 182 179 175 170 164 159 157 157 159 163 164 161 159 151
200 184 193 217 216 214 217 214 210 211 207 198 195 192 188 185 185 185 185 184 183 183 182 179 176 178 180 179 178 176 169 161 155 152 150 148 148 151 152 150 146 140
201 208 212 216 221 224 224 221 218 217 210 198 190 187 184 183 183 181 180 182 182 181 181 177 172 173 178 177 175 174 168 159 155 151 145 142 138 136 138 138 135 133
191 212 219 219 224 229 229 226 224 222 217 207 196 188 184 182 181 178 176 178 180 180 180 176 169 170 175 176 173 173 168 161 158 152 145 141 140 137 136 137 136 133
197 216 223 221 222 227 231 230 226 223 220 212 205 200 193 186 184 183 180 179 179 178 178 175 169 168 173 174 171 169 167 164 161 155 147 143 142 141 139 140 140 138